Retour au catalogue

STARLINK-34596

ActifCommunicationsVLEO
NORAD 64732·PAYLOAD·🇺🇸 United States

Lancé Jul 2, 2025 depuis Cape Canaveral Space Force Station

Loading…

Prochains Passages (prochaines 24 heures)

TLE

FraisSource: CelesTrak SupGP

Époque: Sep 15, 2026, 03:21 UTC

1 64732C 25144J   26258.14006944  .00052559  00000+0  15509-2 0  2584
2 64732  53.1607  18.4392 0001063  81.6725 312.4140 15.34404357    14

Suivez STARLINK-34596 en temps réel avec AllMySat

Download on the App Store